Location: Unspecified
(0.0000°N, 0.0000°E)
Time: 00:26:35
(UTC+00:00)

S-56A Canister/Altair - Pass Details

Date: 13 December 2018
Orbit: 633 x 2500 km, 38.9° (Epoch: 18 January)

Event Time Altitude Azimuth Distance (km) Brightness Sun altitude
Rises 02:06:27 0° 268° (W) 3,780 - -50.4°
Reaches altitude 10° 02:09:35 10° 285° (WNW) 3,091 - -49.8°
Maximum altitude 02:15:13 21° 332° (NNW) 2,798 - -48.6°
Drops below altitude 10° 02:22:35 10° 16° (NNE) 4,150 - -47.1°
Exits shadow 02:25:55 - 26° (NNE) 5,006 11.6 -46.5°
Sets 02:27:47 0° 30° (NNE) 5,498 11.9 -46.1°
